Location: Helsinki
(60.1699°N, 24.9384°E)
Time: 17:00:58
(UTC+02:00)

A-11 Canister half - Pass Details

Date: 02 November 2020
Orbit: 1525 x 1684 km, 47.3° (Epoch: 29 November)

Event Time Altitude Azimuth Distance (km) Brightness Sun altitude
Rises 18:38:56 0° 272° (W) 4,734 13.4 -17.4°
Reaches altitude 10° 18:42:36 10° 261° (W) 3,730 12.3 -17.8°
Maximum altitude 18:49:55 27° 209° (SSW) 2,618 10.5 -18.7°
Drops below altitude 10° 18:57:11 10° 157° (SSE) 3,688 10.7 -19.6°
Enters shadow 18:59:44 - 148° (SSE) 4,371 11.0 -20.0°
